Home   Weather   Wuppertal   Past weeks

Flag for Germany Past Weather in Wuppertal, North Rhine-Westphalia, Germany — Yesterday and Last 2 Weeks

Now
52 °F

Passing clouds.


Feels Like: 47 °F
Forecast: 45 / 51 °F
Wind: 15 mph from South

Location: Duesseldorf

Current Time: Feb 27, 2017 at 12:59:33 am

Latest Report: Feb 27, 2017 at 12:20 am


Visibility: N/A

Pressure: 29.80 "Hg

Humidity: 67%

Dew Point: 41 °F

Location of WuppertalLocation

Past Weather in Wuppertal — Graph

°F

Wuppertal Temperature Yesterday

Maximum temperature yesterday: 55 °F (at 2:20 pm)
Minimum temperature yesterday: 45 °F (at 12:20 am)
Average temperature yesterday: 49 °F

High & Low Weather Summary for the Past Weeks

 TemperatureHumidityPressure
High61 °F (Feb 15, 3:50 pm)100% (Feb 17, 1:20 am)30.51 "Hg (Feb 17, 1:20 am)
Low27 °F (Feb 13, 5:50 am)38% (Feb 14, 3:50 pm)29.24 "Hg (Feb 23, 4:20 pm)
Average44 °F77%30.11 "Hg
* Reported Feb 11 11:20 pm — Feb 26 11:50 pm, Wuppertal, Weather by CustomWeather, © 2017

Note: Actual official high and low records may vary slightly from our data, if they occured in-between our weather recording intervals... More about our weather records

Advertising

Wuppertal Weather History for the Previous 24 Hours

Scroll right to see more
 ConditionsComfort  
Time TempWeatherWind HumidityBarometerVisibility
11:50 pm
Sun, Feb 26
50 °FPassing clouds.14 mph71%29.80 "HgN/A
11:20 pm52 °FPassing clouds.15 mph67%29.80 "HgN/A
10:50 pm52 °FPassing clouds.13 mph67%29.80 "HgN/A
10:20 pm52 °FPassing clouds.13 mph72%29.83 "HgN/A
9:50 pm52 °FPassing clouds.12 mph72%29.83 "HgN/A
9:20 pm52 °FPassing clouds.13 mph72%29.83 "HgN/A
8:50 pm52 °FPassing clouds.13 mph72%29.83 "HgN/A
8:20 pm52 °FPassing clouds.13 mph72%29.83 "HgN/A
7:50 pm52 °FPassing clouds.14 mph72%29.83 "HgN/A
7:20 pm52 °FLight rain. Partly cloudy.18 mph72%29.86 "HgN/A
6:50 pm52 °FLight rain. Partly cloudy.20 mph72%29.86 "HgN/A
6:20 pm52 °FPartly cloudy.15 mph72%29.83 "HgN/A
5:50 pm54 °FBroken clouds.14 mph67%29.83 "HgN/A
5:20 pm54 °FPartly sunny.20 mph67%29.83 "HgN/A
4:50 pm54 °FPartly sunny.14 mph67%29.83 "HgN/A
4:20 pm55 °FPartly sunny.17 mph63%29.83 "HgN/A
3:50 pm55 °FPartly sunny.16 mph63%29.83 "HgN/A
3:20 pm54 °FPartly sunny.18 mph67%29.83 "HgN/A
2:50 pm54 °FPartly sunny.20 mph67%29.86 "HgN/A
2:20 pm55 °FPartly sunny.20 mph63%29.86 "HgN/A
1:50 pm54 °FPartly sunny.20 mph63%29.86 "HgN/A
1:20 pm52 °FPartly sunny.17 mph67%29.86 "HgN/A
12:50 pm52 °FPartly sunny.15 mph67%29.86 "HgN/A
12:20 pm50 °FPartly sunny.15 mph67%29.89 "HgN/A
11:50 am50 °FPartly sunny.21 mph67%29.89 "HgN/A
11:20 am50 °FPartly sunny.20 mph67%29.89 "HgN/A
10:50 am50 °FBroken clouds.20 mph67%29.89 "HgN/A
10:20 am50 °FScattered clouds.17 mph62%29.89 "HgN/A
9:50 am46 °FPartly sunny.15 mph66%29.89 "HgN/A
9:20 am46 °FPartly sunny.15 mph66%29.89 "HgN/A
8:50 am46 °FPartly sunny.16 mph66%29.89 "HgN/A
8:20 am46 °FBroken clouds.15 mph66%29.89 "HgN/A
7:50 am46 °FLight rain. Broken clouds.14 mph66%29.89 "HgN/A
7:20 am46 °FLight rain. Partly cloudy.13 mph62%29.86 "HgN/A
6:50 am46 °FClear.13 mph62%29.86 "Hg10 mi
6:20 am46 °FClear.12 mph62%29.89 "Hg10 mi
5:50 am46 °FClear.13 mph62%29.89 "Hg10 mi
5:20 am46 °FClear.13 mph62%29.89 "Hg10 mi
4:50 am45 °FClear.12 mph66%29.89 "Hg10 mi
4:20 am46 °FClear.10 mph62%29.89 "Hg10 mi
3:50 am45 °FClear.10 mph66%29.92 "Hg10 mi
3:20 am45 °FClear.10 mph66%29.92 "Hg10 mi
2:50 am45 °FClear.12 mph66%29.92 "Hg10 mi
2:20 am45 °FClear.12 mph66%29.92 "Hg10 mi
1:50 am45 °FClear.13 mph66%29.95 "Hg10 mi
1:20 am45 °FClear.13 mph66%29.95 "Hg10 mi
12:50 am45 °FClear.12 mph66%29.95 "Hg10 mi
12:20 am45 °FClear.13 mph66%29.95 "Hg10 mi
Weather by CustomWeather, © 2017

See weather overviewHow to use our weather pages